• In Uzbekistan
  • List of Countries
  • For 7 days
  • Water Temperature
  • Satellite Maps
  • Weather Map
  • Weather Widgets
  • user-avatar
    Login

    Hourly Weather Perth

    Today, 25 May, Thursday

    Time Temperature Precipitation Wind Pressure Humidity
    00:00 +13°C° 0 mm 1 mps 764 mmHg 91%
    01:00 +13°C° 0 mm 1 mps 764 mmHg 91%
    02:00 +12°C° 0 mm 1 mps 764 mmHg 91%
    03:00 +12°C° 0 mm 2 mps 764 mmHg 91%
    04:00 +12°C° 0 mm 2 mps 764 mmHg 91%
    05:00 +12°C° 0 mm 2 mps 764 mmHg 91%
    06:00 +12°C° 0 mm 2 mps 764 mmHg 89%
    07:00 +13°C° 0 mm 2 mps 764 mmHg 88%
    08:00 +13°C° 0 mm 3 mps 764 mmHg 81%
    09:00 +16°C° 0 mm 3 mps 764 mmHg 72%
    10:00 +18°C° 0 mm 3 mps 764 mmHg 62%
    11:00 +21°C° 0 mm 3 mps 763 mmHg 52%
    12:00 +21°C° 0 mm 3 mps 763 mmHg 50%
    13:00 +22°C° 0 mm 3 mps 763 mmHg 48%
    14:00 +22°C° 0 mm 3 mps 762 mmHg 46%
    15:00 +21°C° 0 mm 3 mps 762 mmHg 53%
    16:00 +20°C° 0 mm 3 mps 762 mmHg 60%
    17:00 +18°C° 0 mm 2 mps 762 mmHg 68%
    18:00 +17°C° 0 mm 2 mps 763 mmHg 75%
    19:00 +16°C° 0 mm 2 mps 763 mmHg 82%
    20:00 +15°C° 0 mm 2 mps 763 mmHg 89%
    21:00 +15°C° 0 mm 2 mps 763 mmHg 89%
    22:00 +14°C° 0 mm 2 mps 763 mmHg 89%
    23:00 +14°C° 0 mm 2 mps 763 mmHg 90%

    Tomorrow, 26 May, Friday

    Time Temperature Precipitation Wind Pressure Humidity
    00:00 +13°C° 0.1 mm 3 mps 763 mmHg 91%
    01:00 +13°C° 0.1 mm 3 mps 763 mmHg 92%
    02:00 +13°C° 0.1 mm 3 mps 763 mmHg 93%
    03:00 +13°C° 0.3 mm 3 mps 763 mmHg 93%
    04:00 +14°C° 0.3 mm 3 mps 762 mmHg 94%
    05:00 +14°C° 0.3 mm 3 mps 762 mmHg 95%
    06:00 +14°C° 0.1 mm 3 mps 763 mmHg 94%
    07:00 +14°C° 0.1 mm 3 mps 763 mmHg 93%
    08:00 +15°C° 0.1 mm 4 mps 763 mmHg 92%
    09:00 +15°C° 0 mm 4 mps 763 mmHg 84%
    10:00 +17°C° 0 mm 3 mps 764 mmHg 75%
    11:00 +18°C° 0 mm 3 mps 764 mmHg 66%
    12:00 +18°C° 0 mm 3 mps 764 mmHg 62%
    13:00 +19°C° 0 mm 3 mps 763 mmHg 57%
    14:00 +19°C° 0 mm 3 mps 763 mmHg 53%
    15:00 +18°C° 0 mm 3 mps 763 mmHg 56%
    16:00 +17°C° 0 mm 3 mps 764 mmHg 59%
    17:00 +16°C° 0 mm 3 mps 764 mmHg 63%
    18:00 +14°C° 0 mm 3 mps 764 mmHg 66%
    19:00 +13°C° 0 mm 3 mps 765 mmHg 70%
    20:00 +12°C° 0 mm 3 mps 765 mmHg 74%
    21:00 +11°C° 0 mm 3 mps 765 mmHg 75%
    22:00 +11°C° 0 mm 3 mps 766 mmHg 77%
    23:00 +10°C° 0 mm 3 mps 766 mmHg 78%

    Day after tomorrow, 27 May, Saturday

    Time Temperature Precipitation Wind Pressure Humidity
    00:00 +10°C° 0 mm 3 mps 766 mmHg 80%
    01:00 +10°C° 0 mm 3 mps 766 mmHg 82%
    02:00 +9°C° 0 mm 3 mps 766 mmHg 83%
    03:00 +9°C° 0 mm 3 mps 766 mmHg 85%
    04:00 +8°C° 0 mm 3 mps 766 mmHg 86%
    05:00 +8°C° 0 mm 3 mps 767 mmHg 88%
    06:00 +8°C° 0 mm 3 mps 767 mmHg 86%
    07:00 +9°C° 0 mm 3 mps 767 mmHg 85%
    08:00 +9°C° 0 mm 3 mps 768 mmHg 84%
    09:00 +11°C° 0 mm 3 mps 768 mmHg 74%
    10:00 +13°C° 0 mm 3 mps 768 mmHg 64%
    11:00 +16°C° 0 mm 3 mps 768 mmHg 54%
    12:00 +17°C° 0 mm 3 mps 767 mmHg 51%
    13:00 +17°C° 0 mm 3 mps 767 mmHg 48%
    14:00 +18°C° 0 mm 2 mps 766 mmHg 45%
    15:00 +17°C° 0 mm 2 mps 766 mmHg 49%
    16:00 +16°C° 0 mm 2 mps 766 mmHg 54%
    17:00 +15°C° 0 mm 2 mps 766 mmHg 58%
    18:00 +13°C° 0 mm 3 mps 767 mmHg 62%
    19:00 +12°C° 0 mm 3 mps 767 mmHg 66%
    20:00 +11°C° 0 mm 3 mps 768 mmHg 70%
    21:00 +10°C° 0 mm 3 mps 768 mmHg 72%
    22:00 +10°C° 0 mm 3 mps 769 mmHg 74%
    23:00 +10°C° 0 mm 3 mps 769 mmHg 75%

    28 May, Sunday

    Time Temperature Precipitation Wind Pressure Humidity
    00:00 +9°C° 0 mm 3 mps 769 mmHg 77%
    01:00 +9°C° 0 mm 3 mps 768 mmHg 78%
    02:00 +9°C° 0 mm 3 mps 768 mmHg 80%
    03:00 +9°C° 0 mm 3 mps 768 mmHg 82%
    04:00 +8°C° 0 mm 3 mps 768 mmHg 84%
    05:00 +8°C° 0 mm 3 mps 768 mmHg 86%
    06:00 +9°C° 0 mm 3 mps 768 mmHg 85%
    07:00 +9°C° 0 mm 3 mps 769 mmHg 84%
    08:00 +9°C° 0 mm 3 mps 769 mmHg 83%
    09:00 +11°C° 0 mm 3 mps 769 mmHg 72%
    10:00 +14°C° 0 mm 3 mps 769 mmHg 61%
    11:00 +17°C° 0 mm 3 mps 769 mmHg 50%
    12:00 +18°C° 0 mm 3 mps 768 mmHg 47%
    13:00 +19°C° 0 mm 3 mps 767 mmHg 44%
    14:00 +19°C° 0 mm 2 mps 767 mmHg 41%
    15:00 +18°C° 0 mm 2 mps 767 mmHg 46%
    16:00 +17°C° 0 mm 2 mps 767 mmHg 51%
    17:00 +16°C° 0 mm 2 mps 767 mmHg 55%
    18:00 +14°C° 0 mm 2 mps 767 mmHg 59%
    19:00 +13°C° 0 mm 2 mps 767 mmHg 63%
    20:00 +11°C° 0 mm 3 mps 768 mmHg 66%
    21:00 +11°C° 0 mm 3 mps 768 mmHg 67%
    22:00 +11°C° 0 mm 3 mps 768 mmHg 68%
    23:00 +10°C° 0 mm 3 mps 768 mmHg 69%

    29 May, Monday

    Time Temperature Precipitation Wind Pressure Humidity
    00:00 +10°C° 0 mm 3 mps 767 mmHg 69%
    01:00 +10°C° 0 mm 3 mps 767 mmHg 69%
    02:00 +10°C° 0 mm 3 mps 767 mmHg 70%
    03:00 +10°C° 0 mm 3 mps 766 mmHg 70%
    04:00 +9°C° 0 mm 3 mps 766 mmHg 71%
    05:00 +9°C° 0 mm 2 mps 766 mmHg 72%
    06:00 +9°C° 0 mm 3 mps 767 mmHg 70%
    07:00 +10°C° 0 mm 3 mps 767 mmHg 69%
    08:00 +10°C° 0 mm 3 mps 767 mmHg 67%
    09:00 +13°C° 0 mm 2 mps 767 mmHg 60%
    10:00 +16°C° 0 mm 2 mps 767 mmHg 53%
    11:00 +19°C° 0 mm 2 mps 767 mmHg 46%
    12:00 +20°C° 0 mm 2 mps 767 mmHg 44%
    13:00 +21°C° 0 mm 2 mps 766 mmHg 42%
    14:00 +22°C° 0 mm 3 mps 765 mmHg 40%
    15:00 +21°C° 0 mm 3 mps 765 mmHg 44%
    16:00 +20°C° 0 mm 3 mps 765 mmHg 49%
    17:00 +18°C° 0 mm 3 mps 765 mmHg 54%
    18:00 +18°C° 0 mm 4 mps 765 mmHg 55%
    19:00 +17°C° 0 mm 4 mps 765 mmHg 55%
    20:00 +15°C° 0 mm 5 mps 766 mmHg 56%
    21:00 +15°C° 0 mm 5 mps 765 mmHg 56%
    22:00 +15°C° 0 mm 5 mps 765 mmHg 56%
    23:00 +14°C° 0 mm 5 mps 765 mmHg 56%

    30 May, Tuesday

    Time Temperature Precipitation Wind Pressure Humidity
    00:00 +14°C° 0 mm 5 mps 765 mmHg 58%
    01:00 +14°C° 0 mm 5 mps 765 mmHg 60%
    02:00 +14°C° 0 mm 5 mps 764 mmHg 61%
    03:00 +14°C° 0 mm 5 mps 764 mmHg 62%
    04:00 +14°C° 0 mm 4 mps 764 mmHg 62%
    05:00 +14°C° 0 mm 4 mps 764 mmHg 63%
    06:00 +14°C° 0 mm 4 mps 764 mmHg 62%
    07:00 +14°C° 0 mm 4 mps 765 mmHg 62%
    08:00 +14°C° 0 mm 4 mps 765 mmHg 62%
    09:00 +18°C° 0 mm 4 mps 765 mmHg 55%
    10:00 +20°C° 0 mm 4 mps 765 mmHg 48%
    11:00 +23°C° 0 mm 4 mps 765 mmHg 42%
    12:00 +25°C° 0 mm 4 mps 764 mmHg 39%
    13:00 +26°C° 0 mm 3 mps 764 mmHg 36%
    14:00 +28°C° 0 mm 3 mps 763 mmHg 33%
    15:00 +26°C° 0 mm 2 mps 763 mmHg 41%
    16:00 +24°C° 0 mm 2 mps 763 mmHg 49%
    17:00 +21°C° 0 mm 1 mps 764 mmHg 57%
    18:00 +20°C° 0 mm 1 mps 764 mmHg 61%
    19:00 +19°C° 0 mm 1 mps 764 mmHg 65%
    20:00 +16°C° 0 mm 1 mps 765 mmHg 69%
    21:00 +18°C° 0 mm 1 mps 765 mmHg 66%
    22:00 +18°C° 0 mm 1 mps 765 mmHg 64%
    23:00 +17°C° 0 mm 2 mps 765 mmHg 61%
    Show more